Location: Poughquag
(41.6090°N, 73.6820°W)
Time: 01:52:54
(UTC-04:00)

Vanguard 1 - Pass Details

Date: 02 June 2020
Orbit: 650 x 3833 km, 34.2° (Epoch: 06 July)

Event Time Altitude Azimuth Distance (km) Brightness Sun altitude
Rises 13:39:52 0° 284° (WNW) 7,971 14.8 68.3°
Reaches altitude 10° 13:47:31 10° 271° (W) 6,898 14.7 67.6°
Maximum altitude 14:01:39 21° 232° (SW) 5,405 14.6 65.9°
Drops below altitude 10° 14:13:07 10° 191° (S) 5,425 14.3 64.4°
Sets 14:18:10 0° 176° (S) 5,919 14.3 63.7°
